| time (UTC) | temp F | wind direction | speed knots | gust knots | rain 1hr in | rain 24hr in | rain mn in | humidity % | barometer mb |
| 20260509192507 | 84 | 360 | 3.5 | 8.7 | 0.00 | 0.00 | 0.00 | 66 | 1010.3 |
| 20260509192007 | 83 | 37 | 0.0 | 7.8 | 0.00 | 0.00 | 0.00 | 68 | 1010.3 |
| 20260509191518 | 83 | 46 | 0.9 | 7.8 | 0.00 | 0.00 | 0.00 | 68 | 1010.3 |
| 20260509191007 | 83 | 331 | 0.0 | 7.0 | 0.00 | 0.00 | 0.00 | 68 | 1010.4 |
| 20260509190506 | 83 | 59 | 1.7 | 7.0 | 0.00 | 0.00 | 0.00 | 68 | 1010.4 |
| 20260509190021 | 83 | 36 | 0.9 | 7.8 | 0.00 | 0.00 | 0.00 | 70 | 1010.4 |
| 20260509185506 | 83 | 69 | 0.9 | 7.8 | 0.00 | 0.00 | 0.00 | 69 | 1010.4 |
| 20260509185007 | 82 | 44 | 0.9 | 7.0 | 0.00 | 0.00 | 0.00 | 70 | 1010.4 |
| 20260509184523 | 82 | 61 | 3.5 | 8.7 | 0.00 | 0.00 | 0.00 | 70 | 1010.4 |
| 20260509184011 | 83 | 43 | 2.6 | 8.7 | 0.00 | 0.00 | 0.00 | 70 | 1010.4 |
| 20260509183504 | 82 | 321 | 0.0 | 7.8 | 0.00 | 0.00 | 0.00 | 70 | 1010.4 |
| 20260509183015 | 82 | 360 | 1.7 | 7.8 | 0.00 | 0.00 | 0.00 | 71 | 1010.5 |
| 20260509182505 | 82 | 25 | 0.0 | 9.6 | 0.00 | 0.00 | 0.00 | 71 | 1010.6 |
| 20260509182004 | 82 | 360 | 3.5 | 9.6 | 0.00 | 0.00 | 0.00 | 72 | 1010.6 |
| 20260509181520 | 81 | 70 | 2.6 | 7.8 | 0.00 | 0.00 | 0.00 | 71 | 1010.7 |
| 20260509181007 | 82 | 360 | 2.6 | 7.0 | 0.00 | 0.00 | 0.00 | 71 | 1010.6 |
| 20260509180504 | 82 | 288 | 1.7 | 6.1 | 0.00 | 0.00 | 0.00 | 71 | 1010.8 |
| 20260509180020 | 82 | 28 | 1.7 | 7.0 | 0.00 | 0.00 | 0.00 | 71 | 1010.9 |
| 20260509175506 | 81 | 68 | 1.7 | 7.0 | 0.00 | 0.00 | 0.00 | 71 | 1010.9 |
| 20260509175003 | 81 | 321 | 0.9 | 6.1 | 0.00 | 0.00 | 0.00 | 72 | 1011.0 |
| 20260509174506 | 81 | 319 | 0.0 | 7.0 | 0.00 | 0.00 | 0.00 | 73 | 1011.0 |
| 20260509174005 | 81 | 39 | 2.6 | 7.0 | 0.00 | 0.00 | 0.00 | 72 | 1011.0 |
| 20260509173503 | 81 | 34 | 1.7 | 7.0 | 0.00 | 0.00 | 0.00 | 73 | 1011.0 |
| 20260509173011 | 81 | 58 | 1.7 | 6.1 | 0.00 | 0.00 | 0.00 | 74 | 1011.1 |
| 20260509172504 | 81 | 342 | 0.0 | 3.5 | 0.00 | 0.00 | 0.00 | 73 | 1011.1 |
| 20260509172005 | 80 | 347 | 0.0 | 5.2 | 0.00 | 0.00 | 0.00 | 74 | 1011.1 |
| 20260509171525 | 80 | 49 | 1.7 | 5.2 | 0.00 | 0.00 | 0.00 | 74 | 1011.2 |
| 20260509171004 | 80 | 313 | 1.7 | 5.2 | 0.00 | 0.00 | 0.00 | 74 | 1011.2 |
| 20260509170507 | 80 | 310 | 1.7 | 7.0 | 0.00 | 0.00 | 0.00 | 74 | 1011.2 |
| 20260509170028 | 80 | 309 | 1.7 | 7.0 | 0.00 | 0.00 | 0.00 | 74 | 1011.2 |
| 20260509165508 | 80 | 10 | 0.9 | 7.0 | 0.00 | 0.00 | 0.00 | 75 | 1011.1 |
| 20260509165008 | 79 | 5 | 1.7 | 7.8 | 0.00 | 0.00 | 0.00 | 74 | 1011.2 |
| 20260509164522 | 79 | 328 | 3.5 | 7.8 | 0.00 | 0.00 | 0.00 | 75 | 1011.2 |
| 20260509164006 | 79 | 360 | 2.6 | 7.8 | 0.00 | 0.00 | 0.00 | 75 | 1011.1 |
| 20260509163503 | 79 | 360 | 1.7 | 8.7 | 0.00 | 0.00 | 0.00 | 75 | 1011.2 |
| 20260509163010 | 79 | 329 | 1.7 | 8.7 | 0.00 | 0.00 | 0.00 | 75 | 1011.2 |
| 20260509162506 | 78 | 333 | 0.9 | 5.2 | 0.00 | 0.00 | 0.00 | 77 | 1011.2 |
| 20260509162006 | 78 | 29 | 0.0 | 8.7 | 0.00 | 0.00 | 0.00 | 77 | 1011.1 |
| 20260509161511 | 78 | 312 | 2.6 | 8.7 | 0.00 | 0.00 | 0.00 | 76 | 1011.1 |
| 20260509161003 | 77 | 360 | 1.7 | 7.8 | 0.00 | 0.00 | 0.00 | 78 | 1011.2 |
| 20260509160503 | 77 | 360 | 3.5 | 7.8 | 0.00 | 0.00 | 0.00 | 77 | 1011.2 |
| 20260509160018 | 77 | 311 | 1.7 | 7.8 | 0.00 | 0.00 | 0.00 | 78 | 1011.2 |
| 20260509155505 | 77 | 317 | 1.7 | 7.8 | 0.00 | 0.00 | 0.00 | 79 | 1011.2 |
| 20260509155008 | 76 | 329 | 2.6 | 7.0 | 0.00 | 0.00 | 0.00 | 78 | 1011.0 |
| 20260509154520 | 77 | 278 | 1.7 | 5.2 | 0.00 | 0.00 | 0.00 | 79 | 1011.1 |
| 20260509154010 | 77 | 360 | 1.7 | 5.2 | 0.00 | 0.00 | 0.00 | 79 | 1011.1 |
| 20260509153506 | 76 | 319 | 0.9 | 5.2 | 0.00 | 0.00 | 0.00 | 80 | 1011.1 |
| 20260509153024 | 76 | 323 | 0.9 | 7.0 | 0.00 | 0.00 | 0.00 | 80 | 1011.0 |
| 20260509152505 | 76 | 338 | 2.6 | 7.0 | 0.00 | 0.00 | 0.00 | 81 | 1010.9 |
| 20260509152006 | 76 | 346 | 1.7 | 7.0 | 0.00 | 0.00 | 0.00 | 81 | 1010.9 |
| 20260509151512 | 76 | 323 | 0.0 | 5.2 | 0.00 | 0.00 | 0.00 | 83 | 1010.9 |
| 20260509151004 | 75 | 325 | 0.9 | 5.2 | 0.00 | 0.00 | 0.00 | 83 | 1011.0 |
| 20260509150504 | 75 | 302 | 0.9 | 6.1 | 0.00 | 0.00 | 0.00 | 83 | 1011.0 |
| 20260509150021 | 75 | 351 | 1.7 | 6.1 | 0.00 | 0.00 | 0.00 | 83 | 1011.1 |
| 20260509145504 | 74 | 344 | 0.0 | 5.2 | 0.00 | 0.00 | 0.00 | 84 | 1011.2 |
| 20260509145004 | 74 | 329 | 1.7 | 5.2 | 0.00 | 0.00 | 0.00 | 84 | 1011.2 |
| 20260509144528 | 74 | 309 | 0.0 | 6.1 | 0.00 | 0.00 | 0.00 | 84 | 1011.2 |
| 20260509144012 | 73 | 290 | 0.0 | 6.1 | 0.00 | 0.00 | 0.00 | 85 | 1011.2 |
| 20260509143504 | 73 | 304 | 0.9 | 7.0 | 0.00 | 0.00 | 0.00 | 85 | 1011.2 |
| 20260509143023 | 73 | 360 | 0.9 | 7.0 | 0.00 | 0.00 | 0.00 | 85 | 1011.1 |
| 20260509142508 | 73 | 294 | 0.0 | 7.0 | 0.00 | 0.00 | 0.00 | 86 | 1011.1 |
| 20260509142008 | 73 | 317 | 1.7 | 7.0 | 0.00 | 0.00 | 0.00 | 86 | 1011.1 |
| 20260509141525 | 73 | 315 | 1.7 | 6.1 | 0.00 | 0.00 | 0.00 | 87 | 1011.0 |
| 20260509141007 | 72 | 305 | 2.6 | 7.0 | 0.00 | 0.00 | 0.00 | 87 | 1010.9 |
| 20260509140503 | 72 | 267 | 0.9 | 7.0 | 0.00 | 0.00 | 0.00 | 87 | 1010.9 |
| 20260509140010 | 72 | 258 | 0.9 | 5.2 | 0.00 | 0.00 | 0.00 | 87 | 1010.9 |
| 20260509135503 | 72 | 275 | 0.9 | 4.3 | 0.00 | 0.00 | 0.00 | 88 | 1010.7 |
| 20260509135004 | 72 | 292 | 0.9 | 4.3 | 0.00 | 0.00 | 0.00 | 88 | 1010.6 |
| 20260509134515 | 72 | 295 | 0.0 | 3.5 | 0.00 | 0.00 | 0.00 | 88 | 1010.7 |
| 20260509134010 | 72 | 274 | 0.0 | 3.5 | 0.00 | 0.00 | 0.00 | 89 | 1010.8 |
| 20260509133504 | 72 | 273 | 0.0 | 5.2 | 0.00 | 0.00 | 0.00 | 89 | 1010.8 |
| 20260509133023 | 72 | 274 | 0.0 | 5.2 | 0.00 | 0.00 | 0.00 | 89 | 1010.7 |
| 20260509132511 | 72 | 272 | 0.0 | 5.2 | 0.00 | 0.00 | 0.00 | 89 | 1010.6 |
| 20260509132006 | 72 | 271 | 1.7 | 5.2 | 0.00 | 0.00 | 0.00 | 89 | 1010.6 |
| 20260509131538 | 72 | 191 | 0.0 | 0.0 | 0.00 | 0.00 | 0.00 | 90 | 1010.6 |
| 20260509131009 | 72 | 190 | 0.0 | 0.0 | 0.00 | 0.00 | 0.00 | 90 | 1010.6 |
| 20260509130508 | 72 | 155 | 0.0 | 0.0 | 0.00 | 0.00 | 0.00 | 91 | 1010.4 |
| 20260509130028 | 72 | 155 | 0.0 | 0.0 | 0.00 | 0.00 | 0.00 | 91 | 1010.4 |
| 20260509125507 | 72 | 155 | 0.0 | 0.9 | 0.00 | 0.00 | 0.00 | 92 | 1010.5 |
| 20260509125006 | 72 | 155 | 0.0 | 0.9 | 0.00 | 0.00 | 0.00 | 92 | 1010.6 |
| 20260509124516 | 71 | 153 | 0.0 | 0.9 | 0.00 | 0.00 | 0.00 | 93 | 1010.5 |
| 20260509124004 | 71 | 153 | 0.0 | 0.0 | 0.00 | 0.00 | 0.00 | 93 | 1010.4 |
| 20260509123506 | 70 | 153 | 0.0 | 0.0 | 0.00 | 0.00 | 0.00 | 94 | 1010.6 |
| 20260509123020 | 70 | 153 | 0.0 | 0.9 | 0.00 | 0.00 | 0.00 | 93 | 1010.6 |
| 20260509122504 | 70 | 153 | 0.0 | 0.9 | 0.00 | 0.00 | 0.00 | 93 | 1010.5 |
| 20260509122008 | 70 | 153 | 0.0 | 0.0 | 0.00 | 0.00 | 0.00 | 93 | 1010.5 |
| 20260509121526 | 70 | 153 | 0.0 | 0.0 | 0.00 | 0.00 | 0.00 | 93 | 1010.4 |
| 20260509121005 | 70 | 153 | 0.0 | 0.0 | 0.00 | 0.00 | 0.00 | 93 | 1010.4 |
| 20260509120507 | 70 | 153 | 0.0 | 0.0 | 0.00 | 0.00 | 0.00 | 93 | 1010.4 |
| 20260509120026 | 70 | 153 | 0.0 | 0.0 | 0.00 | 0.00 | 0.00 | 93 | 1010.4 |
| 20260509115507 | 70 | 153 | 0.0 | 0.9 | 0.00 | 0.00 | 0.00 | 93 | 1010.4 |
| 20260509115009 | 70 | 153 | 0.0 | 0.9 | 0.00 | 0.00 | 0.00 | 92 | 1010.2 |
| 20260509114531 | 70 | 153 | 0.0 | 1.7 | 0.00 | 0.00 | 0.00 | 92 | 1010.1 |
| 20260509114009 | 70 | 153 | 0.0 | 1.7 | 0.00 | 0.00 | 0.00 | 92 | 1010.1 |
| 20260509113506 | 70 | 154 | 0.0 | 2.6 | 0.00 | 0.00 | 0.00 | 92 | 1010.1 |
| 20260509113016 | 70 | 155 | 0.0 | 5.2 | 0.00 | 0.00 | 0.00 | 92 | 1010.0 |
| 20260509112503 | 70 | 156 | 0.0 | 5.2 | 0.00 | 0.00 | 0.00 | 92 | 1009.9 |
| 20260509112004 | 70 | 156 | 0.0 | 5.2 | 0.00 | 0.00 | 0.00 | 92 | 1009.9 |
| 20260509111521 | 70 | 157 | 0.0 | 2.6 | 0.00 | 0.00 | 0.00 | 92 | 1009.9 |
| 20260509111009 | 70 | 163 | 0.0 | 0.9 | 0.00 | 0.00 | 0.00 | 92 | 1009.9 |
| 20260509110507 | 70 | 164 | 0.0 | 2.6 | 0.00 | 0.00 | 0.00 | 92 | 1009.8 |
| 20260509110024 | 70 | 164 | 0.0 | 3.5 | 0.00 | 0.00 | 0.00 | 92 | 1009.6 |
| 20260509105508 | 70 | 157 | 0.0 | 3.5 | 0.00 | 0.00 | 0.00 | 92 | 1009.5 |
| 20260509105007 | 70 | 161 | 0.0 | 3.5 | 0.00 | 0.00 | 0.00 | 92 | 1009.5 |
| 20260509104527 | 70 | 162 | 0.0 | 1.7 | 0.00 | 0.00 | 0.00 | 92 | 1009.5 |
| 20260509104008 | 70 | 163 | 0.0 | 0.0 | 0.00 | 0.00 | 0.00 | 92 | 1009.5 |
| 20260509103508 | 70 | 163 | 0.0 | 0.0 | 0.00 | 0.00 | 0.00 | 92 | 1009.6 |
| 20260509103029 | 70 | 163 | 0.0 | 0.0 | 0.00 | 0.00 | 0.00 | 92 | 1009.5 |
| 20260509102507 | 70 | 163 | 0.0 | 0.0 | 0.00 | 0.00 | 0.00 | 92 | 1009.6 |
| 20260509102006 | 70 | 163 | 0.0 | 0.0 | 0.00 | 0.00 | 0.00 | 92 | 1009.5 |
| 20260509101531 | 70 | 163 | 0.0 | 0.0 | 0.00 | 0.00 | 0.00 | 92 | 1009.6 |
| 20260509101008 | 70 | 163 | 0.0 | 0.0 | 0.00 | 0.00 | 0.00 | 92 | 1009.6 |
| 20260509100507 | 70 | 163 | 0.0 | 0.0 | 0.00 | 0.00 | 0.00 | 92 | 1009.7 |
| 20260509100024 | 70 | 163 | 0.0 | 0.0 | 0.00 | 0.00 | 0.00 | 92 | 1009.6 |
| 20260509095508 | 70 | 163 | 0.0 | 0.0 | 0.00 | 0.00 | 0.00 | 92 | 1009.4 |
| 20260509095007 | 70 | 163 | 0.0 | 0.0 | 0.00 | 0.00 | 0.00 | 92 | 1009.4 |
| 20260509094522 | 70 | 163 | 0.0 | 0.9 | 0.00 | 0.00 | 0.00 | 91 | 1009.3 |
| 20260509094010 | 70 | 163 | 0.0 | 0.9 | 0.00 | 0.00 | 0.00 | 91 | 1009.2 |
| 20260509093508 | 70 | 162 | 0.0 | 4.3 | 0.00 | 0.00 | 0.00 | 91 | 1009.0 |
| 20260509093028 | 70 | 153 | 0.0 | 4.3 | 0.00 | 0.00 | 0.00 | 91 | 1008.7 |
| 20260509092509 | 70 | 157 | 0.9 | 6.1 | 0.00 | 0.00 | 0.00 | 91 | 1008.0 |
| 20260509092013 | 70 | 150 | 0.9 | 8.7 | 0.00 | 0.00 | 0.00 | 91 | 1007.8 |
| 20260509091528 | 70 | 157 | 0.9 | 8.7 | 0.00 | 0.00 | 0.00 | 91 | 1007.8 |
| 20260509091008 | 70 | 138 | 1.7 | 8.7 | 0.00 | 0.00 | 0.00 | 91 | 1007.7 |
| 20260509090508 | 70 | 124 | 3.5 | 7.8 | 0.00 | 0.00 | 0.00 | 90 | 1007.8 |
| 20260509090018 | 70 | 138 | 1.7 | 8.7 | 0.00 | 0.00 | 0.00 | 90 | 1008.0 |
| 20260509085508 | 70 | 126 | 0.9 | 9.6 | 0.00 | 0.00 | 0.00 | 90 | 1008.1 |
| 20260509085010 | 70 | 117 | 1.7 | 10.4 | 0.00 | 0.00 | 0.00 | 90 | 1008.2 |
| 20260509084523 | 70 | 138 | 1.7 | 10.4 | 0.00 | 0.00 | 0.00 | 90 | 1008.4 |
| 20260509084008 | 70 | 360 | 1.7 | 8.7 | 0.00 | 0.00 | 0.00 | 90 | 1008.5 |
| 20260509083510 | 70 | 156 | 3.5 | 7.0 | 0.00 | 0.00 | 0.00 | 90 | 1008.8 |
| 20260509083028 | 70 | 199 | 1.7 | 7.0 | 0.00 | 0.00 | 0.00 | 90 | 1009.0 |
| 20260509082507 | 70 | 155 | 0.9 | 8.7 | 0.00 | 0.00 | 0.00 | 90 | 1009.2 |
| 20260509082009 | 70 | 360 | 2.6 | 8.7 | 0.00 | 0.00 | 0.00 | 90 | 1009.4 |
| 20260509081531 | 70 | 132 | 1.7 | 7.8 | 0.00 | 0.00 | 0.00 | 90 | 1009.6 |
| 20260509081010 | 70 | 360 | 0.9 | 7.8 | 0.00 | 0.00 | 0.00 | 90 | 1009.8 |
| 20260509080510 | 70 | 156 | 0.9 | 4.3 | 0.00 | 0.00 | 0.00 | 90 | 1009.9 |
| 20260509080026 | 70 | 143 | 0.9 | 4.3 | 0.00 | 0.00 | 0.00 | 89 | 1010.2 |
| 20260509075506 | 70 | 154 | 0.0 | 4.3 | 0.00 | 0.00 | 0.00 | 89 | 1010.2 |
| 20260509075008 | 70 | 217 | 0.0 | 0.9 | 0.00 | 0.00 | 0.00 | 89 | 1010.4 |
| 20260509074518 | 70 | 230 | 0.0 | 0.9 | 0.00 | 0.00 | 0.00 | 90 | 1010.6 |
| 20260509074006 | 70 | 230 | 0.0 | 0.9 | 0.00 | 0.00 | 0.00 | 90 | 1010.8 |
| 20260509073503 | 69 | 230 | 0.0 | 0.9 | 0.00 | 0.00 | 0.00 | 90 | 1011.0 |
| 20260509073009 | 69 | 230 | 0.0 | 0.9 | 0.00 | 0.00 | 0.00 | 90 | 1011.0 |
| 20260509072502 | 69 | 230 | 0.0 | 0.0 | 0.00 | 0.00 | 0.00 | 90 | 1011.2 |
| 20260509072001 | 69 | 230 | 0.0 | 0.0 | 0.00 | 0.00 | 0.00 | 89 | 1011.2 |
| 20260509071508 | 69 | 230 | 0.0 | 0.0 | 0.00 | 0.00 | 0.00 | 89 | 1011.2 |
| 20260509071003 | 69 | 230 | 0.0 | 0.0 | 0.00 | 0.00 | 0.00 | 89 | 1011.2 |
| 20260509070504 | 69 | 230 | 0.0 | 0.9 | 0.00 | 0.00 | 0.00 | 89 | 1011.1 |
| 20260509070012 | 69 | 230 | 0.0 | 0.9 | 0.00 | 0.00 | 0.00 | 89 | 1011.0 |
| 20260509065503 | 69 | 230 | 0.0 | 0.9 | 0.00 | 0.00 | 0.00 | 89 | 1010.7 |
| 20260509065006 | 69 | 230 | 0.0 | 0.9 | 0.00 | 0.00 | 0.00 | 89 | 1010.4 |
| 20260509064518 | 69 | 230 | 0.0 | 0.9 | 0.00 | 0.00 | 0.00 | 89 | 1010.2 |
| 20260509064006 | 69 | 230 | 0.0 | 1.7 | 0.00 | 0.00 | 0.00 | 88 | 1010.3 |
| 20260509063505 | 69 | 230 | 0.0 | 1.7 | 0.00 | 0.00 | 0.00 | 88 | 1010.3 |
| 20260509063022 | 69 | 215 | 0.0 | 1.7 | 0.00 | 0.00 | 0.00 | 88 | 1010.4 |
| 20260509062511 | 69 | 215 | 0.0 | 1.7 | 0.00 | 0.00 | 0.00 | 88 | 1010.3 |
| 20260509062004 | 70 | 216 | 0.0 | 1.7 | 0.00 | 0.00 | 0.00 | 87 | 1010.3 |
| 20260509061505 | 70 | 216 | 0.0 | 1.7 | 0.00 | 0.00 | 0.00 | 87 | 1010.2 |
| 20260509061006 | 70 | 218 | 0.0 | 0.0 | 0.00 | 0.00 | 0.00 | 87 | 1010.6 |
| 20260509060503 | 70 | 218 | 0.0 | 0.0 | 0.00 | 0.00 | 0.00 | 86 | 1010.9 |
| 20260509060008 | 70 | 218 | 0.0 | 0.0 | 0.00 | 0.00 | 0.00 | 86 | 1010.9 |
| 20260509055503 | 70 | 218 | 0.0 | 0.0 | 0.00 | 0.00 | 0.00 | 86 | 1011.0 |
| 20260509055005 | 70 | 218 | 0.0 | 0.0 | 0.00 | 0.00 | 0.00 | 86 | 1011.2 |
| 20260509054516 | 70 | 218 | 0.0 | 0.9 | 0.00 | 0.00 | 0.00 | 86 | 1011.4 |
| 20260509054004 | 71 | 217 | 0.0 | 0.9 | 0.00 | 0.00 | 0.00 | 86 | 1011.2 |
| 20260509053504 | 71 | 219 | 0.0 | 0.9 | 0.00 | 0.00 | 0.00 | 85 | 1011.0 |
| 20260509053018 | 71 | 219 | 0.0 | 0.9 | 0.00 | 0.00 | 0.00 | 85 | 1011.4 |
| 20260509052506 | 71 | 219 | 0.0 | 1.7 | 0.00 | 0.00 | 0.00 | 85 | 1011.7 |
| 20260509052005 | 71 | 219 | 0.0 | 1.7 | 0.00 | 0.00 | 0.00 | 85 | 1012.0 |
| 20260509051528 | 71 | 208 | 0.0 | 0.9 | 0.00 | 0.00 | 0.00 | 85 | 1011.9 |
| 20260509051010 | 71 | 208 | 0.0 | 0.9 | 0.00 | 0.00 | 0.00 | 84 | 1011.6 |
| 20260509050504 | 71 | 208 | 0.0 | 0.9 | 0.00 | 0.00 | 0.00 | 84 | 1011.0 |
| 20260509050007 | 71 | 209 | 0.0 | 0.9 | 0.00 | 0.00 | 0.00 | 84 | 1010.5 |
| 20260509045505 | 71 | 203 | 0.0 | 0.9 | 0.00 | 0.00 | 0.00 | 83 | 1010.3 |
| 20260509045003 | 71 | 202 | 0.0 | 0.9 | 0.00 | 0.00 | 0.00 | 83 | 1010.3 |
| 20260509044512 | 71 | 203 | 0.0 | 0.9 | 0.00 | 0.00 | 0.00 | 83 | 1010.4 |
| 20260509044003 | 72 | 203 | 0.0 | 4.3 | 0.00 | 0.00 | 0.00 | 82 | 1010.3 |
| 20260509043503 | 72 | 201 | 0.0 | 4.3 | 0.00 | 0.00 | 0.00 | 82 | 1009.9 |
| 20260509043013 | 72 | 202 | 0.0 | 5.2 | 0.00 | 0.00 | 0.00 | 82 | 1009.9 |
| 20260509042505 | 72 | 196 | 0.0 | 7.0 | 0.00 | 0.00 | 0.00 | 81 | 1009.8 |
| 20260509042010 | 72 | 150 | 1.7 | 7.0 | 0.00 | 0.00 | 0.00 | 81 | 1009.8 |
| 20260509041522 | 72 | 164 | 0.9 | 4.3 | 0.00 | 0.00 | 0.00 | 81 | 1010.2 |
| 20260509041010 | 72 | 190 | 0.0 | 0.0 | 0.00 | 0.00 | 0.00 | 81 | 1010.6 |
| 20260509040511 | 72 | 190 | 0.0 | 0.0 | 0.00 | 0.00 | 0.00 | 81 | 1011.1 |
| 20260509040026 | 72 | 190 | 0.0 | 0.0 | 0.00 | 0.00 | 0.00 | 81 | 1011.4 |
| 20260509035515 | 72 | 190 | 0.0 | 0.0 | 0.00 | 0.00 | 0.00 | 81 | 1011.3 |
| 20260509035004 | 72 | 190 | 0.0 | 0.0 | 0.00 | 0.00 | 0.00 | 81 | 1011.2 |
| 20260509034533 | 72 | 190 | 0.0 | 0.0 | 0.00 | 0.00 | 0.00 | 81 | 1011.3 |
| 20260509034003 | 72 | 190 | 0.0 | 0.0 | 0.00 | 0.00 | 0.00 | 81 | 1011.4 |
| 20260509033503 | 72 | 189 | 0.0 | 0.0 | 0.00 | 0.00 | 0.00 | 81 | 1011.2 |
| 20260509033012 | 72 | 189 | 0.0 | 0.0 | 0.00 | 0.00 | 0.00 | 81 | 1010.9 |
| 20260509032507 | 72 | 189 | 0.0 | 0.0 | 0.00 | 0.00 | 0.00 | 81 | 1010.7 |
| 20260509032012 | 72 | 189 | 0.0 | 0.9 | 0.00 | 0.00 | 0.00 | 81 | 1010.5 |
| 20260509031522 | 72 | 189 | 0.0 | 0.9 | 0.00 | 0.00 | 0.00 | 81 | 1010.4 |
| 20260509031007 | 72 | 189 | 0.0 | 0.9 | 0.00 | 0.00 | 0.00 | 80 | 1010.3 |
| 20260509030507 | 72 | 190 | 0.0 | 0.9 | 0.00 | 0.00 | 0.00 | 80 | 1010.4 |
| 20260509030023 | 72 | 190 | 0.0 | 0.9 | 0.00 | 0.00 | 0.00 | 80 | 1010.5 |
| 20260509025506 | 72 | 190 | 0.0 | 0.9 | 0.00 | 0.00 | 0.00 | 80 | 1010.3 |
| 20260509025008 | 72 | 190 | 0.0 | 0.0 | 0.00 | 0.00 | 0.00 | 80 | 1010.3 |
| 20260509024525 | 72 | 190 | 0.0 | 2.6 | 0.00 | 0.00 | 0.00 | 80 | 1010.1 |
| 20260509024008 | 72 | 190 | 0.0 | 2.6 | 0.00 | 0.00 | 0.00 | 79 | 1009.9 |
| 20260509023506 | 73 | 195 | 0.0 | 1.7 | 0.00 | 0.00 | 0.00 | 79 | 1009.7 |
| 20260509023009 | 73 | 194 | 0.0 | 1.7 | 0.00 | 0.00 | 0.00 | 79 | 1009.7 |
| 20260509022503 | 73 | 191 | 0.0 | 1.7 | 0.00 | 0.00 | 0.00 | 79 | 1009.7 |
| 20260509022004 | 73 | 191 | 0.0 | 1.7 | 0.00 | 0.00 | 0.00 | 79 | 1009.7 |
| 20260509021520 | 73 | 191 | 0.0 | 3.5 | 0.00 | 0.00 | 0.00 | 79 | 1009.7 |
| 20260509021008 | 73 | 180 | 0.0 | 4.3 | 0.00 | 0.00 | 0.00 | 79 | 1009.7 |
| 20260509020509 | 73 | 163 | 0.0 | 4.3 | 0.00 | 0.00 | 0.00 | 79 | 1009.3 |
| 20260509020020 | 73 | 192 | 0.0 | 1.7 | 0.00 | 0.00 | 0.00 | 79 | 1009.7 |
| 20260509015507 | 73 | 192 | 0.0 | 1.7 | 0.00 | 0.00 | 0.00 | 79 | 1009.8 |
| 20260509015008 | 73 | 192 | 0.0 | 0.0 | 0.00 | 0.00 | 0.00 | 78 | 1009.6 |
| 20260509014523 | 73 | 192 | 0.0 | 0.0 | 0.00 | 0.00 | 0.00 | 78 | 1009.6 |
| 20260509014007 | 73 | 192 | 0.0 | 0.0 | 0.00 | 0.00 | 0.00 | 78 | 1009.5 |
| 20260509013508 | 73 | 192 | 0.0 | 0.0 | 0.00 | 0.00 | 0.00 | 77 | 1009.5 |
| 20260509013026 | 73 | 192 | 0.0 | 0.0 | 0.00 | 0.00 | 0.00 | 77 | 1009.3 |
| 20260509012509 | 73 | 192 | 0.0 | 0.0 | 0.00 | 0.00 | 0.00 | 77 | 1009.4 |
| 20260509012004 | 73 | 192 | 0.0 | 0.9 | 0.00 | 0.00 | 0.00 | 77 | 1009.0 |
| 20260509011512 | 73 | 192 | 0.0 | 0.9 | 0.00 | 0.00 | 0.00 | 76 | 1009.3 |
| 20260509011003 | 73 | 192 | 0.0 | 2.6 | 0.00 | 0.00 | 0.00 | 76 | 1008.8 |
| 20260509010504 | 74 | 192 | 0.0 | 2.6 | 0.00 | 0.00 | 0.00 | 75 | 1009.1 |
| 20260509010021 | 74 | 191 | 0.0 | 2.6 | 0.00 | 0.00 | 0.00 | 75 | 1009.0 |
| 20260509005505 | 74 | 183 | 0.0 | 2.6 | 0.00 | 0.00 | 0.00 | 75 | 1008.9 |
| 20260509005007 | 74 | 202 | 0.0 | 5.2 | 0.00 | 0.00 | 0.00 | 75 | 1008.9 |
| 20260509004532 | 74 | 190 | 0.0 | 5.2 | 0.00 | 0.00 | 0.00 | 74 | 1008.8 |
| 20260509004008 | 74 | 191 | 0.0 | 3.5 | 0.00 | 0.00 | 0.00 | 74 | 1008.8 |
| 20260509003508 | 74 | 175 | 0.0 | 4.3 | 0.00 | 0.00 | 0.00 | 74 | 1008.8 |
| 20260509003026 | 74 | 167 | 0.0 | 7.0 | 0.00 | 0.00 | 0.00 | 73 | 1008.7 |
| 20260509002511 | 75 | 191 | 0.9 | 7.0 | 0.00 | 0.00 | 0.00 | 73 | 1008.3 |
| 20260509002012 | 75 | 360 | 0.9 | 7.0 | 0.00 | 0.00 | 0.00 | 73 | 1008.5 |
| 20260509001512 | 75 | 176 | 0.0 | 3.5 | 0.00 | 0.00 | 0.00 | 73 | 1008.7 |
| 20260509001004 | 75 | 193 | 0.0 | 2.6 | 0.00 | 0.00 | 0.00 | 72 | 1008.9 |
| 20260509000504 | 75 | 192 | 0.0 | 4.3 | 0.00 | 0.00 | 0.00 | 72 | 1008.9 |
| 20260509000015 | 75 | 206 | 0.0 | 5.2 | 0.00 | 0.00 | 0.00 | 72 | 1008.8 |
| 20260508235504 | 75 | 182 | 0.9 | 5.2 | 0.00 | 0.00 | 0.00 | 71 | 1008.9 |
| 20260508235004 | 75 | 162 | 0.0 | 5.2 | 0.00 | 0.00 | 0.00 | 70 | 1008.9 |
| 20260508234522 | 76 | 193 | 0.9 | 5.2 | 0.00 | 0.00 | 0.00 | 70 | 1009.0 |
| 20260508234006 | 76 | 360 | 0.0 | 4.3 | 0.00 | 0.00 | 0.00 | 69 | 1009.1 |
| 20260508233506 | 76 | 205 | 0.0 | 2.6 | 0.00 | 0.00 | 0.00 | 69 | 1009.2 |
| 20260508233020 | 76 | 197 | 0.0 | 1.7 | 0.00 | 0.00 | 0.00 | 70 | 1009.1 |
| 20260508232507 | 76 | 192 | 0.0 | 2.6 | 0.00 | 0.00 | 0.00 | 70 | 1009.2 |
| 20260508232007 | 76 | 189 | 0.0 | 3.5 | 0.00 | 0.00 | 0.00 | 70 | 1009.4 |
| 20260508231509 | 76 | 206 | 0.0 | 5.2 | 0.00 | 0.00 | 0.00 | 70 | 1009.5 |
| 20260508231003 | 76 | 211 | 0.0 | 7.0 | 0.00 | 0.00 | 0.00 | 69 | 1009.5 |
| 20260508230502 | 76 | 196 | 1.7 | 7.0 | 0.00 | 0.00 | 0.00 | 69 | 1009.5 |
| 20260508230011 | 77 | 257 | 0.0 | 4.3 | 0.00 | 0.00 | 0.00 | 69 | 1009.5 |
| 20260508225503 | 77 | 360 | 0.0 | 5.2 | 0.00 | 0.00 | 0.00 | 68 | 1009.5 |
| 20260508225008 | 78 | 167 | 0.0 | 6.1 | 0.00 | 0.00 | 0.00 | 68 | 1009.5 |
| 20260508224520 | 78 | 225 | 0.9 | 6.1 | 0.00 | 0.00 | 0.00 | 67 | 1009.5 |
| 20260508224003 | 78 | 158 | 0.9 | 6.1 | 0.00 | 0.00 | 0.00 | 67 | 1009.4 |
| 20260508223504 | 79 | 309 | 0.9 | 7.8 | 0.00 | 0.00 | 0.00 | 66 | 1009.4 |
| 20260508223034 | 79 | 360 | 1.7 | 7.8 | 0.00 | 0.00 | 0.00 | 67 | 1009.3 |
| 20260508222506 | 79 | 233 | 1.7 | 7.8 | 0.00 | 0.00 | 0.00 | 66 | 1009.2 |
| 20260508222008 | 79 | 194 | 0.9 | 8.7 | 0.00 | 0.00 | 0.00 | 66 | 1009.2 |
| 20260508221524 | 79 | 212 | 0.0 | 8.7 | 0.00 | 0.00 | 0.00 | 66 | 1009.2 |
| 20260508221007 | 79 | 360 | 2.6 | 8.7 | 0.00 | 0.00 | 0.00 | 66 | 1009.1 |
| 20260508220504 | 79 | 360 | 0.9 | 9.6 | 0.00 | 0.00 | 0.00 | 66 | 1009.1 |
| 20260508220010 | 79 | 360 | 3.5 | 9.6 | 0.00 | 0.00 | 0.00 | 67 | 1009.1 |
| 20260508215504 | 79 | 201 | 0.0 | 7.0 | 0.00 | 0.00 | 0.00 | 67 | 1009.1 |
| 20260508215004 | 78 | 192 | 0.9 | 7.0 | 0.00 | 0.00 | 0.00 | 68 | 1009.2 |
| 20260508214521 | 78 | 214 | 2.6 | 7.0 | 0.00 | 0.00 | 0.00 | 68 | 1009.1 |
| 20260508214006 | 77 | 141 | 1.7 | 7.0 | 0.00 | 0.00 | 0.00 | 68 | 1008.9 |
| 20260508213503 | 77 | 144 | 0.0 | 5.2 | 0.00 | 0.00 | 0.00 | 69 | 1008.9 |
| 20260508213019 | 76 | 157 | 0.9 | 5.2 | 0.00 | 0.00 | 0.00 | 69 | 1009.2 |
| 20260508212504 | 75 | 188 | 1.7 | 4.3 | 0.00 | 0.00 | 0.00 | 72 | 1009.3 |
| 20260508212011 | 75 | 194 | 0.0 | 4.3 | 0.00 | 0.00 | 0.00 | 72 | 1009.7 |
| 20260508211524 | 74 | 180 | 0.9 | 4.3 | 0.00 | 0.00 | 0.00 | 71 | 1009.8 |
| 20260508211012 | 75 | 191 | 0.9 | 4.3 | 0.00 | 0.00 | 0.00 | 71 | 1009.9 |
| 20260508210508 | 75 | 209 | 0.0 | 2.6 | 0.00 | 0.00 | 0.00 | 72 | 1010.2 |
| 20260508210026 | 75 | 211 | 0.0 | 2.6 | 0.00 | 0.00 | 0.00 | 73 | 1010.5 |
| 20260508205503 | 76 | 360 | 0.0 | 2.6 | 0.00 | 0.00 | 0.00 | 72 | 1010.6 |
| 20260508205004 | 76 | 197 | 0.0 | 2.6 | 0.00 | 0.00 | 0.00 | 68 | 1010.7 |
| 20260508204514 | 76 | 202 | 0.0 | 7.0 | 0.00 | 0.00 | 0.00 | 67 | 1010.9 |
| 20260508204005 | 77 | 207 | 0.0 | 7.0 | 0.00 | 0.00 | 0.00 | 67 | 1010.9 |
| 20260508203504 | 77 | 360 | 0.0 | 3.5 | 0.00 | 0.00 | 0.00 | 66 | 1011.0 |
| 20260508203018 | 77 | 204 | 0.0 | 8.7 | 0.00 | 0.00 | 0.00 | 65 | 1011.1 |
| 20260508202507 | 78 | 43 | 0.0 | 8.7 | 0.00 | 0.00 | 0.00 | 64 | 1011.0 |
| 20260508202006 | 79 | 360 | 0.0 | 4.3 | 0.00 | 0.00 | 0.00 | 63 | 1011.0 |
| 20260508201521 | 79 | 360 | 0.0 | 7.8 | 0.00 | 0.00 | 0.00 | 63 | 1011.0 |
| 20260508201006 | 80 | 237 | 0.9 | 7.8 | 0.00 | 0.00 | 0.00 | 62 | 1011.0 |
| 20260508200507 | 80 | 215 | 0.9 | 7.0 | 0.00 | 0.00 | 0.00 | 61 | 1011.0 |
| 20260508200023 | 81 | 360 | 0.9 | 5.2 | 0.00 | 0.00 | 0.00 | 61 | 1011.0 |
| 20260508195509 | 81 | 47 | 0.0 | 4.3 | 0.00 | 0.00 | 0.00 | 60 | 1011.0 |
| 20260508195006 | 81 | 221 | 0.0 | 5.2 | 0.00 | 0.00 | 0.00 | 60 | 1011.0 |
| 20260508194528 | 81 | 224 | 0.9 | 9.6 | 0.00 | 0.00 | 0.00 | 60 | 1011.2 |
| 20260508194003 | 82 | 360 | 0.0 | 9.6 | 0.00 | 0.00 | 0.00 | 58 | 1011.2 |
| 20260508193504 | 82 | 360 | 0.0 | 4.3 | 0.00 | 0.00 | 0.00 | 59 | 1011.2 |
| 20260508193010 | 81 | 360 | 0.0 | 3.5 | 0.00 | 0.00 | 0.00 | 60 | 1011.2 |